969  
ASUS41 KBOX 170110  
RWRBOX  
 
REGIONAL WEATHER ROUNDUP  
NATIONAL WEATHER SERVICE TAUNTON MA  
900 PM EDT WED AUG 16 2017  
 
NOTE: "FAIR" INDICATES FEW OR NO CLOUDS BELOW 12,000 FEET WITH NO  
SIGNIFICANT WEATHER AND/OR S TO VISIBILITY
.  
 
MAZALL-170200-  
EASTERN MASSACHUSETTS  
 
CITY SKY/WX TMP DP RH WIND PRES REMARKS
 
BOSTON PTCLDY 75 54 47 N7 29.97R  
BEVERLY CLEAR 68 53 58 N6 29.97R  
LAWRENCE CLEAR 71 50 47 N6 30.01R  
BEDFORD CLEAR 67 54 63 NW3 29.97R  
BLUE HILL N/A 71 51 49 N9 29.98R  
NORWOOD CLEAR 73 54 51 NW3 29.97R  
MARSHFIELD CLEAR 68 63 83 CALM 29.97R  
PLYMOUTH CLEAR 68 62 81 NE3 29.98R  
TAUNTON CLEAR 63 59 87 CALM 29.97R  
NEW BEDFORD PTCLDY 72 66 81 S5 29.97R  

 
 
MAZALL-170200-  
CAPE COD AND THE ISLANDS  
 
CITY SKY/WX TMP DP RH WIND PRES REMARKS
 
FALMOUTH PTCLDY 70 64 83 SW5 29.99R  
HYANNIS PTCLDY 72 65 78 CALM 29.97R  
CHATHAM CLEAR 70 64 81 CALM 29.99R  
PROVINCETOWN CLEAR 70 58 65 NW7 29.98R  
NANTUCKET CLEAR 67 65 93 SW7 29.98R  
MARTHAS VNYRD MOCLDY 70 63 78 SW5 29.98R  

 
 
MAZALL-170200-  
CENTRAL AND WESTERN MASSACHUSETTS  
 
CITY SKY/WX TMP DP RH WIND PRES REMARKS
 
WORCESTER CLEAR 70 54 56 N6 30.01R  
FITCHBURG CLEAR 68 58 70 CALM 30.00R  
ORANGE PTCLDY 65 61 87 CALM 30.01R  
SPRINGFIELD PTCLDY 72 59 63 NW3 29.98R  
WESTFIELD CLEAR 72 60 66 W5 29.99R  
NORTH ADAMS PTCLDY 65 61 87 CALM 30.02R  
PITTSFIELD PTCLDY 66 54 65 W7 30.03R  

 
 
RIZALL-170200-  
RHODE ISLAND  
 
CITY SKY/WX TMP DP RH WIND PRES REMARKS
 
PROVIDENCE PTCLDY 77 60 55 NW3 29.97R  
NEWPORT CLEAR 70 67 90 CALM 29.97R  
BLOCK ISLAND PTCLDY 73 67 81 W8 29.98R  
WESTERLY PTCLDY 72 67 84 CALM 29.98R  

 
 
CTZALL-170200-  
CONNECTICUT  
 
CITY SKY/WX TMP DP RH WIND PRES REMARKS
 
BRADLEY INTL PTCLDY 72 61 68 NW6 29.99R  
HARTFORD CLEAR 78 60 53 NW5 29.98R  
BRIDGEPORT CLEAR 78 60 53 N5 29.98R  
DANBURY PTCLDY 70 65 84 SW3 30.02R  
GROTON CLEAR 72 66 81 CALM 29.97R  
NEW HAVEN CLEAR 76 62 62 CALM 29.99R  
CHESTER NOT AVBL  
MERIDEN CLEAR 68 62 81 CALM 29.99R  
WILLIMANTIC MOCLDY 71 64 78 CALM 29.99R  
OXFORD CLEAR 68 61 78 N3 30.03R  

 
 
MEZ002-015-021-024-NHZ003-005-008-011-012-014-VTZ005-008-170200-  
NORTHERN NEW ENGLAND  
 
CITY SKY/WX TMP DP RH WIND PRES REMARKS
 
PORTLAND ME CLEAR 66 43 43 VRB6 29.97R  
BANGOR ME PTCLDY 65 45 48 NW9 29.95R  
CONCORD NH CLEAR 63 50 62 CALM 30.00R  
MANCHESTER NH CLEAR 71 47 42 N8 29.98R  
NASHUA NH CLEAR 70 53 54 NW6 30.00R  
PORTSMOUTH NH PTCLDY 65 49 54 NW7 29.97R  
JAFFREY NH PTCLDY 64 57 78 CALM 30.03R  
KEENE NH N/A N/A N/A N/A MISG N/A  
BURLINGTON VT PTCLDY 66 49 54 CALM 30.04R  
MT. WASHINGTON FOG 37 37 100 NW45 N/A VSB 1/16WCI 23  

 
 
NYZ052-076-170200-  
EASTERN NEW YORK  
 
CITY SKY/WX TMP DP RH WIND PRES REMARKS
 
ALBANY PTCLDY 70 56 61 N5 30.02R  
NEW YORK CITY PTCLDY 81 63 54 CALM 29.98R  

 
 
ANZALL-170200-  
MARINE OBSERVATIONS  
 
STATION/POSITION TIME TEMP WIND PRES VSBY WAVE
 
AIR SEA DIR/SP/G HT/PER  
(UTC) (F) (DEG/KT/KT) (MB) (MI) (FT/S)  
BOSTON BUOY 0050 72 69 340/ 10/ 12 1014.2R 2/13  
BUZZARDS BAY 0000 72 180/ 9/ 9 1014.8R  
NANTUCKET SOUND 0050 72 72 250/ 10/ 10 1014.8R 1/14  
MASS BAY-STELLWA 0004 71 69 320/ 8/ 8 1013.4R 2/11  
ISLE OF SHOALS 0000 72 300/ 8/ 9 1014.2R  
S OF BLOCK IS 0043 70 N/A 5/11  

 
   
.....................KEY......................
 
 
SKY/WX - SKY CONDITION/PRESENT WEATHER  
TMP - TEMPERATURE IN FAHRENHEIT  
DWPT - DEWPOINT IN FAHRENHEIT  
RH - RELATIVE HUMIDITY IN PERCENT  
WIND - DIRECTION AND SPEED IN MPH  
PRES - MEAN SEA LEVEL PRESSURE IN INCHES OF HG  
WCI - WIND CHILL INDEX  
VSB - VISIBILITY IN MILES  
HX - HEAT INDEX  
TC - TEMPERATURE IN CELSIUS  
VRB - VARIABLE WIND DIRECTION  
N/A - NOT AVAILABLE  
 
 
CLICK HERE TO GO TO PREVIOUS BULLETINS.

The Nexlab MA Page
The Nexlab RI Page
The Nexlab NH Page
The Nexlab CT Page Main Text Page